Location: Cadenet
(43.7345°N, 5.3750°E)
Time: 03:45:43
(UTC+00:00)

Daily predictions for brighter satellites

Satellite Brightness Start Highest point End
(mag) Time Altitude Azimuth Time Altitude Azimuth Time Altitude Azimuth
SL-16 R/B 4.3 02:46:27 22° ENE 02:46:27 22° ENE 02:49:12 10° NE
BREEZE M DEB (TANK) 4.4 03:12:40 10° WNW 03:37:08 87° NNE 03:42:20 10° ESE
ATLAS CENTAUR R/B 3.4 03:46:18 27° NNE 03:46:18 27° NNE 03:48:21 10° NNE
Cosmos 2237 Rocket 3.8 03:48:41 24° N 03:48:41 24° N 03:51:12 10° NNE
Lacrosse 5 3.0 03:47:37 38° NNE 03:47:44 38° NNE 03:52:28 10° E
NOSS 3-1 (C) 4.0 03:53:59 65° WSW 03:54:15 65° WSW 04:02:49 10° SSE
BREEZE-M DEB (TANK) 4.3 03:54:30 46° NW 03:55:40 50° NNW 04:00:08 10° ENE
MSX 4.3 03:50:20 10° N 03:54:27 47° N 03:54:27 47° N
H-2A R/B 3.9 03:51:59 10° NNE 03:56:06 39° E 03:57:24 32° SE
Cosmos 2219 Rocket 4.4 03:58:45 12° NNW 03:58:45 12° NNW 03:59:33 10° N
GEOS 3 Rocket 4.2 03:51:14 10° NE 03:56:28 55° ESE 03:57:21 49° SSE
BREEZE-M DEB (TANK) 4.2 03:58:30 59° NE 03:58:30 59° NE 04:05:07 10° ENE
ADEOS 4.2 03:52:40 10° NNE 03:56:19 46° N 03:56:19 46° N
CZ-2C R/B 2.6 03:54:26 10° NNE 03:59:16 74° NE 03:59:16 74° NE
Meteor 1-31 Rocket 4.5 03:57:02 10° NNE 03:59:23 30° NE 03:59:23 30° NE
CZ-4C R/B 3.5 04:02:10 27° NNW 04:02:10 27° NNW 04:06:21 10° NNE
Meteor 2-10 Rocket 3.7 04:03:59 62° N 04:03:59 62° N 04:08:17 10° N
Cosmos 1934 Rocket 4.0 04:10:38 10° NNW 04:16:49 59° W 04:23:01 10° S
Cosmos 1943 Rocket 2.6 04:13:11 12° NNW 04:18:17 59° ENE 04:23:42 10° SE
ALOS 3.8 04:16:04 10° NNE 04:20:20 35° E 04:24:36 10° SSE
USA 215 4.3 04:15:29 10° NE 04:21:04 31° NNW 04:22:54 27° NW
COSMO-SKYMED 1 3.8 04:18:52 10° SE 04:22:57 42° ENE 04:27:03 10° N
CZ-4B R/B 4.1 04:19:04 10° NNE 04:23:24 81° ESE 04:24:21 54° S
Cosmos 2297 4.3 04:26:08 38° SSW 04:26:08 38° SSW 04:29:57 10° S
SL-16 R/B 2.4 04:28:21 48° WNW 04:28:21 48° WNW 04:33:51 10° NNE
Cosmos 2221 2.8 04:28:29 10° S 04:32:42 64° E 04:36:58 10° NNE
Cosmos 1605 Rocket 3.9 04:32:53 10° NNW 04:39:00 60° W 04:45:01 10° S
FENGYUN 3A 4.3 04:34:47 10° NNE 04:40:08 56° E 04:45:27 10° S
USA 229 DEB 4.4 04:41:12 33° WSW 04:41:26 33° WSW 04:48:02 10° S
USA 229 4.4 04:41:15 33° WSW 04:41:32 33° WSW 04:48:08 10° S
Cosmos 2369 Rocket 2.4 04:36:58 10° NNW 04:42:42 73° ENE 04:48:24 10° SSE
Cosmos 614 Rocket 4.2 04:38:16 10° S 04:43:22 68° ESE 04:48:33 10° NNE
Aureole 2 Rocket 3.7 04:42:35 17° N 04:44:29 34° ENE 04:47:24 10° SE
Cosmos 1603 3.9 04:38:51 10° SSW 04:44:32 71° ESE 04:50:13 10° NNE
NOSS 3-1 (A) 4.3 04:44:10 24° WNW 04:48:41 47° WSW 04:56:54 10° S
Cosmos 1943 3.7 04:45:09 10° S 04:50:40 61° ESE 04:56:13 10° NNE
Meteor PRIRODA 3.5 04:48:29 10° N 04:52:12 77° WNW 04:54:56 17° SSW
Cosmos 1153 Rocket 4.3 04:46:23 10° NNW 04:52:31 73° W 04:58:36 10° S
Meteor 2-3 Rocket 3.8 04:52:58 10° NNW 04:58:36 58° W 05:04:15 10° S
CZ-4B R/B 4.5 04:56:47 10° NNE 05:01:50 41° E 05:06:48 10° S
Cosmos 1727 Rocket 4.0 04:58:29 10° SSW 05:04:34 59° W 05:10:41 10° N
Cosmos 1238 4.0 05:02:07 10° S 05:05:10 89° ENE 05:08:14 10° N
Cosmos 1633 2.9 05:03:32 10° N 05:07:10 66° E 05:10:47 10° SSE
Cosmos 1484 Rocket 3.0 05:03:25 10° N 05:07:13 47° WNW 05:11:02 10° SSW
SKYMED 2 3.5 05:06:43 10° S 05:11:00 59° W 05:15:17 10° NNW
STARLINK-1099 4.4 05:08:11 12° SSW 05:11:46 47° SE 05:15:38 10° ENE
Cosmos 1805 Rocket 3.7 05:07:33 10° N 05:11:54 73° E 05:16:13 10° SSE
Cosmos 2173 Rocket 3.9 05:08:31 10° N 05:14:51 84° W 05:21:03 10° S
STARLINK-1104 4.3 05:12:36 11° SW 05:16:21 51° SE 05:20:16 10° ENE
Sich 1 3.7 05:12:26 10° N 05:16:41 58° E 05:20:55 10° SSE
Cosmos 1500 Rocket 3.9 05:15:16 10° NNW 05:19:27 41° W 05:23:34 10° SSW
CZ-4B R/B 3.6 05:16:44 10° NNW 05:19:51 26° WNW 05:20:20 25° W
STARLINK-1144 4.1 05:17:00 10° SW 05:20:56 56° SE 05:24:52 10° ENE
Meteor 2-2 Rocket 4.3 05:15:58 10° SSW 05:21:58 69° WNW 05:28:00 10° N
PSLV R/B 3.9 05:18:34 10° N 05:22:10 47° WNW 05:25:49 10° SSW
ATLAS CENTAUR R/B 3.4 05:22:30 15° NW 05:23:22 16° NW 05:26:04 10° N
ATLAS 2AS CENTAUR R/B 4.5 05:17:15 10° NNW 05:23:47 28° NNE 05:29:54 10° E
Cosmos 1238 Rocket 3.8 05:17:55 10° N 05:24:09 83° E 05:29:24 10° S
Okean O Rocket 1.9 05:20:35 10° NNE 05:24:58 70° ESE 05:29:18 10° S
STARLINK-1103 4.0 05:21:33 10° SW 05:25:31 61° SE 05:29:29 10° ENE
PAYLOAD B 4.2 05:21:24 10° NNE 05:27:01 87° WNW 05:32:34 10° SSW
Cosmos 2100 Rocket 4.0 05:22:33 10° NNW 05:28:41 61° W 05:34:43 10° S
STARLINK-1101 3.9 05:26:09 10° SW 05:30:08 66° SE 05:34:09 10° ENE
STARLINK-1128 3.8 05:26:17 10° SW 05:30:14 68° SE 05:34:12 10° ENE
Lacrosse 5 2.1 05:26:50 15° WNW 05:30:51 50° SW 05:35:43 10° SSE
Cosmos 1743 Rocket 4.3 05:27:29 10° NNW 05:31:11 28° W 05:34:52 10° SSW
H-2A R/B 3.8 05:27:59 10° NNW 05:31:21 22° WNW 05:34:00 13° WSW
Cosmos 2084 3.8 05:27:58 10° SSW 05:32:27 73° SE 05:36:56 10° NE
GEOS 3 Rocket 4.4 05:29:35 10° NNE 05:34:17 33° NW 05:38:29 13° W
STARLINK-1113 3.7 05:30:43 10° SW 05:34:40 74° SE 05:38:39 10° ENE
Meteor 1-31 Rocket 4.4 05:32:29 10° NNW 05:34:46 15° WNW 05:34:48 15° WNW
STARLINK-1102 3.7 05:30:46 10° SW 05:34:46 72° SE 05:38:48 10° ENE
STARLINK-1118 2.5 05:33:40 21° WSW 05:35:07 55° NNW 05:37:38 10° NE
CZ-2C R/B 4.1 05:34:15 10° NNW 05:37:11 15° WNW 05:38:39 14° WNW
Cosmos 1000 Rocket 4.5 05:31:34 10° SSW 05:37:37 60° W 05:43:47 10° N
STARLINK-1070 2.7 05:35:37 17° WSW 05:37:42 60° NNW 05:40:36 10° NE
STARLINK-1124 3.0 05:36:35 18° W 05:38:31 48° NNW 05:41:23 10° NE
ADEOS Rocket 3.2 05:32:38 10° SSE 05:38:48 88° ENE 05:45:43 10° NNW
STARLINK-1066 2.8 05:36:40 16° WSW 05:38:49 58° NNW 05:41:43 10° NE
STARLINK-1081 2.8 05:36:54 16° WSW 05:39:04 58° NNW 05:41:57 10° NE
STARLINK-1119 3.6 05:35:06 10° SW 05:39:04 80° SE 05:43:04 10° ENE
STARLINK-1069 2.8 05:37:19 16° WSW 05:39:29 57° NNW 05:42:23 10° NE
STARLINK-1111 3.6 05:35:29 10° SW 05:39:30 78° SE 05:43:32 10° ENE
STARLINK-1085 2.8 05:37:33 16° WSW 05:39:43 57° NNW 05:42:38 10° NE
Cosmos 2061 Rocket 4.0 05:33:32 10° N 05:39:49 77° W 05:46:01 10° S
STARLINK-1086 2.8 05:37:46 16° WSW 05:39:57 57° NNW 05:42:50 10° NE
STARLINK-1095 2.8 05:37:59 16° WSW 05:40:10 57° NNW 05:43:03 10° NE
STARLINK-1077 2.8 05:38:12 16° WSW 05:40:24 56° NNW 05:43:18 10° NE
STARLINK-1075 2.8 05:38:24 15° WSW 05:40:37 56° NNW 05:43:31 10° NE
STARLINK-1093 2.8 05:38:38 15° WSW 05:40:51 56° NNW 05:43:44 10° NE
STARLINK-1074 2.8 05:38:50 15° WSW 05:41:04 56° NNW 05:43:58 10° NE
STARLINK-1087 2.8 05:39:04 15° WSW 05:41:19 55° NNW 05:44:12 10° NE
STARLINK-1088 2.8 05:39:17 15° WSW 05:41:31 55° NNW 05:44:24 10° NE
STARLINK-1115 2.8 05:39:29 15° WSW 05:41:44 55° NNW 05:44:38 10° NE
STARLINK-1076 2.9 05:39:43 15° WSW 05:41:58 54° NNW 05:44:52 10° NE
STARLINK-1092 2.9 05:39:56 15° WSW 05:42:12 54° NNW 05:45:05 10° NE
STARLINK-1080 2.9 05:40:09 15° WSW 05:42:25 54° NNW 05:45:18 10° NE
STARLINK-1090 2.9 05:40:22 15° WSW 05:42:39 54° NNW 05:45:32 10° NE
STARLINK-1089 2.9 05:40:35 14° WSW 05:42:52 53° NNW 05:45:45 10° NE
STARLINK-1107 2.9 05:40:48 14° WSW 05:43:05 53° NNW 05:45:58 10° NE
STARLINK-1109 2.9 05:40:59 14° WSW 05:43:18 53° NNW 05:46:10 10° NE
STARLINK-1091 2.9 05:41:14 14° WSW 05:43:34 53° NNW 05:46:26 10° NE
STARLINK-1114 3.5 05:39:34 10° SW 05:43:34 85° SE 05:47:33 10° NE
STARLINK-1072 2.9 05:41:27 14° WSW 05:43:46 52° NNW 05:46:39 10° NE
STARLINK-1096 2.9 05:41:41 14° WSW 05:44:00 52° NNW 05:46:53 10° NE
STARLINK-1073 3.6 05:40:07 10° SW 05:44:08 85° SE 05:48:11 10° NE
STARLINK-1079 2.9 05:41:53 14° WSW 05:44:13 52° NNW 05:47:06 10° NE
STARLINK-1116 2.9 05:42:06 14° WSW 05:44:28 52° NNW 05:47:20 10° NE
STARLINK-1094 2.9 05:42:32 14° WSW 05:44:54 51° NNW 05:47:47 10° NE
Cosmos 1459 Rocket 4.2 05:39:06 10° NNW 05:45:00 50° W 05:50:59 10° SSW
STARLINK-1117 2.9 05:42:44 14° WSW 05:45:07 51° NNW 05:47:59 10° NE
Cosmos 1151 Rocket 4.1 05:41:02 10° SSE 05:45:10 49° E 05:49:22 10° NNE
STARLINK-1078 2.9 05:42:57 13° WSW 05:45:21 51° NNW 05:48:14 10° NE
STARLINK-1108 2.9 05:43:10 13° WSW 05:45:34 50° NNW 05:48:27 10° NE
STARLINK-1071 2.9 05:43:24 13° WSW 05:45:48 50° NNW 05:48:40 10° NE
STARLINK-1110 3.0 05:43:37 13° WSW 05:46:02 50° NNW 05:48:54 10° NE
STARLINK-1122 3.0 05:44:02 13° WSW 05:46:28 50° NNW 05:49:20 10° NE
STARLINK-1126 3.0 05:44:15 13° WSW 05:46:42 49° NNW 05:49:34 10° NE
STARLINK-1082 3.0 05:44:28 13° WSW 05:46:56 49° NNW 05:49:47 10° NE
STARLINK-1100 3.0 05:44:41 13° WSW 05:47:09 49° NNW 05:50:00 10° NE
STARLINK-1083 3.0 05:44:54 13° WSW 05:47:23 49° NNW 05:50:15 10° NE
STARLINK-1125 3.0 05:45:08 13° WSW 05:47:37 48° NNW 05:50:29 10° NE
STARLINK-1130 (DARKSAT) 3.5 05:43:56 10° SW 05:47:55 89° NW 05:51:56 10° NE
BREEZE M DEB (TANK) 4.1 05:44:47 11° WNW 05:48:07 60° NNE 05:58:40 10° ESE
STARLINK-1121 3.5 05:44:42 10° SW 05:48:44 89° NW 05:52:48 10° NE
Shenzhou-11 Module 2.4 05:46:59 10° WSW 05:49:32 47° SSE 05:52:07 10° E
CZ-4C R/B 4.3 05:48:54 10° NW 05:51:52 14° N 05:55:03 10° NNE
Cosmos 1400 Rocket 2.7 05:48:20 10° SSW 05:52:19 75° W 05:56:25 10° N
STARLINK-1084 3.5 05:48:23 10° WSW 05:52:23 83° NW 05:56:24 10° NE
STARLINK-1106 3.5 05:49:26 10° WSW 05:53:28 83° NW 05:57:31 10° NE
Cosmos 1725 Rocket 4.0 05:47:14 10° N 05:53:29 77° W 05:59:46 10° S
Cosmos 1954 Rocket 4.0 05:48:36 10° SSW 05:53:54 68° WNW 05:59:14 10° NNE
Cosmos 1869 4.4 05:51:12 10° SW 05:54:26 23° WNW 05:57:41 10° NNW
Cosmos 2123 Rocket 4.0 05:48:59 10° SSW 05:55:17 73° W 06:01:37 10° N
Cosmos 407 Rocket 4.2 05:51:06 10° SW 05:55:55 34° WNW 06:00:43 10° N
ALOS 3.2 05:53:45 10° N 05:57:37 26° WNW 06:01:28 10° WSW
STARLINK-1112 3.5 05:54:13 10° WSW 05:58:15 77° NNW 06:02:19 10° NE
COSMO-SKYMED 1 3.9 05:56:14 10° SW 05:59:18 19° W 06:02:22 10° NW
USA 116 4.4 05:56:54 10° SSW 05:59:31 23° W 06:02:05 10° NW
Cosmos 1140 Rocket 3.9 05:54:52 10° SW 05:59:49 42° WNW 06:04:49 10° N
Cosmos 921 Rocket 3.9 05:57:26 10° NW 06:01:16 29° W 06:05:02 10° SSW
Cosmos 1943 Rocket 3.4 05:57:38 10° NW 06:01:31 20° W 06:05:24 10° SW
Cosmos 1802 Rocket 4.4 05:56:33 10° NNW 06:02:37 45° W 06:08:39 10° SSW
Cosmos 1606 3.8 05:59:23 10° S 06:03:04 50° E 06:06:45 10° NNE
